Zurück zum Katalog

STARLINK-35661

AktivKommunikationVLEO
NORAD 66387·PAYLOAD·🇺🇸 United States

Gestartet Nov 8, 2025 von Cape Canaveral Space Force Station

Loading…

Nächste Überflüge (nächste 24 Stunden)

TLE

AktuellSource: CelesTrak SupGP

Epoche: Sep 15, 2026, 03:28 UTC

1 66387C 25257H   26258.14493056 -.00010553  00000+0 -31186-3 0  2581
2 66387  53.1588  52.5099 0001201  89.2168 269.3367 15.34388665    16

Verfolge STARLINK-35661 in Echtzeit mit AllMySat

Download on the App Store